This demonstration page uses our WeatherBlox Daily Observations layout. Learn more.

Left ArrowRight Arrow

34.02893, -84.19858

Hourly Observations for December 6, 2022

Temp ( °F °C ) Dew Point ( °F °C ) Humidity (%) Winds ( mph kmh ) Pressure ( in mb ) Visibility ( mi km ) Precip ( " mm )
12:30 am 00:30 Cloudy 46 7.8 45 7.2 96 96 E 3 6 30.13 1020 10 16 0.01 0.13
12:53 am 00:53 Cloudy with Light Rain 46 7.8 45 7.2 96 96 ESE 3 6 30.11 1020 8 13 0.01 0.13
1:53 am 01:53 Cloudy with Light Rain 47 8.3 45 7.2 93 93 NE 3 6 30.12 1020 8 13 0.02 0.51
3:53 am 03:53 Cloudy with Light Rain 46 7.8 45 7.2 96 96 VRB 3 6 30.14 1021 5 8 0.04 1.02
4:53 am 04:53 Cloudy 45 7.2 44 6.7 97 97 VRB 5 7 30.14 1021 10 16 0.02 0.51
5:27 am 05:27 Cloudy with Mist and Fog 45 7.2 44 6.7 97 97 Calm 30.14 1021 6 10 0.00 0.00
5:37 am 05:37 Cloudy with Mist and Fog 45 7.2 44 6.7 97 97 VRB 5 7 30.14 1021 4 6 0.00 0.00
5:53 am 05:53 Cloudy with Mist and Fog 45 7.2 44 6.7 97 97 VRB 6 9 30.14 1021 2 3 0.00 0.00
6:23 am 06:23 Cloudy with Light Rain 45 7.2 44 6.7 97 97 VRB 3 6 30.15 1021 5 8 0.07 1.78
6:30 am 06:30 Cloudy with Rain 45 7.2 44 6.7 97 97 VRB 3 6 30.15 1021 2 3 0.11 2.79
6:53 am 06:53 Cloudy with Light Rain 45 7.2 44 6.7 97 97 Calm 30.16 1021 2 3 0.13 3.30
7:00 am 07:00 Cloudy with Light Rain 45 7.2 44 6.7 97 97 NE 3 6 30.17 1022 4 6 0.01 0.25
7:50 am 07:50 Cloudy with Mist and Fog 45 7 45 7 100 100 E 5 7 30.18 1022 3 4 0.03 0.76
7:53 am 07:53 Cloudy with Mist and Fog 45 7.2 44 6.7 97 97 VRB 3 6 30.19 1022 3 5 0.03 0.76
8:12 am 08:12 Cloudy with Mist and Fog 46 7.8 44 6.7 93 93 VRB 3 6 30.19 1022 2 3 0.00 0.00
8:22 am 08:22 Cloudy with Mist and Fog 46 7.8 45 7.2 96 96 undefined N/A 30.19 1022 2 3 0.00 0.00
8:53 am 08:53 Cloudy with Mist and Fog 46 7.8 45 7.2 96 96 VRB 3 6 30.21 1023 2 3 0.00 0.00
9:02 am 09:02 Cloudy with Mist and Fog 46 7.8 45 7.2 96 96 VRB 6 9 30.21 1023 1 2 0.00 0.00
9:53 am 09:53 Cloudy with Mist and Fog 46 7.8 46 7.8 100 100 VRB 3 6 30.22 1023 1 2 0.00 0.00
10:00 am 10:00 Cloudy with Mist and Fog 46 7.8 46 7.8 100 100 VRB 3 6 30.22 1023 3 4 0.00 0.00
10:53 am 10:53 Cloudy with Mist and Fog 47 8.3 46 7.8 97 97 E 3 6 30.23 1024 2 2 0.00 0.00
11:49 am 11:49 Cloudy with Mist and Fog 48 9 46 8 93 93 VRB 3 6 30.22 1023 3 4 0.00 0.00
11:53 am 11:53 Cloudy with Mist and Fog 48 8.9 47 8.3 96 96 E 3 6 30.22 1023 1 2 0.00 0.00
12:00 pm 12:00 Cloudy with Mist and Fog 48 8.9 47 8.3 96 96 VRB 3 6 30.22 1023 3 4 0.00 0.00
12:18 pm 12:18 Cloudy with Mist and Fog 48 8.9 48 8.9 100 100 Calm 30.22 1023 1 2 0.00 0.00
12:53 pm 12:53 Cloudy with Mist and Fog 48 8.9 48 8.9 100 100 VRB 3 6 30.21 1023 1 2 0.00 0.00
1:53 pm 13:53 Cloudy with Fog 50 10 49 9.4 96 96 Calm 30.19 1022 1 1 0.00 0.00
2:53 pm 14:53 Cloudy with Fog 50 10 50 10 100 100 VRB 5 7 30.19 1022 1 1 0.00 0.00
3:53 pm 15:53 Cloudy with Fog 50 10 50 10 100 100 VRB 3 6 30.19 1022 0 0 0.00 0.00
4:53 pm 16:53 Partly Cloudy with Fog 51 10.6 50 10 96 96 Calm 30.20 1023 0 0 0.00 0.00
5:41 pm 17:41 Mostly Clear with Fog 51 10.6 50 10 96 96 Calm 30.20 1023 1 1 0.00 0.00
5:53 pm 17:53 Mostly Clear with Fog 51 10.6 51 10.6 100 100 VRB 3 6 30.21 1023 1 1 0.00 0.00
6:53 pm 18:53 Mostly Clear with Fog 51 10.6 50 10 96 96 Calm 30.22 1023 1 1 0.00 0.00
7:00 pm 19:00 Mostly Clear with Mist and Fog 51 10.6 51 10.6 100 100 VRB 3 6 30.21 1023 1 1 0.00 0.00
7:53 pm 19:53 Mostly Clear with Mist and Fog 51 10.6 51 10.6 100 100 Calm 30.22 1023 1 1 0.00 0.00
8:09 pm 20:09 Mostly Clear with Fog 51 10.6 51 10.6 100 100 Calm 30.22 1023 1 1 0.00 0.00
8:48 pm 20:48 Mostly Clear with Fog 52 11 52 11 100 100 ENE 3 6 30.23 1024 0 0 0.00 0.00
8:53 pm 20:53 Mostly Clear with Fog 51 10.6 51 10.6 100 100 Calm 30.23 1024 0 0 0.00 0.00
9:10 pm 21:10 Mostly Clear with Fog 51 10.6 51 10.6 100 100 VRB 3 6 30.23 1024 1 1 0.00 0.00
9:53 pm 21:53 Mostly Clear with Fog 51 10.6 51 10.6 100 100 E 3 6 30.24 1024 1 1 0.00 0.00
10:53 pm 22:53 Mostly Clear with Fog 51 10.6 51 10.6 100 100 Calm 30.25 1024 1 1 0.00 0.00
11:06 pm 23:06 Mostly Clear with Mist and Fog 51 10.6 51 10.6 100 100 Calm 30.25 1024 1 1 0.00 0.00
11:32 pm 23:32 Mostly Clear with Mist and Fog 51 10.6 51 10.6 100 100 Calm 30.25 1024 1 2 0.00 0.00
11:49 pm 23:49 Cloudy with Mist and Fog 52 11 52 11 100 100 Calm 30.25 1024 2 3 0.01 0.13
11:53 pm 23:53 Cloudy with Mist and Fog 51 10.6 51 10.6 100 100 Calm 30.26 1025 3 4 0.01 0.13

Powered by AerisWeather